Voltar ao catálogo

STARLINK-31627

AtivoComunicaçõesVLEO
NORAD 59268·PAYLOAD·🇺🇸 United States

Lançado Mar 19, 2024 de Vandenberg Space Force Base

Loading…

Próximas Passagens (próximas 24 horas)

TLE

AtualizadoSource: CelesTrak SupGP

Época: Sep 14, 2026, 22:49 UTC

1 59268C 24050Q   26257.95118056 -.00010470  00000+0 -30948-3 0  2575
2 59268  53.1593  19.4489 0001008  85.2815 135.8369 15.34382469    12

Acompanhe STARLINK-31627 em tempo real com AllMySat

Download on the App Store